ELEKTRO-L 2

导读

ELEKTRO-L 2(也译Electro-L 2)是独联体(CIS)框架下俄罗斯研发的静止轨道气象卫星,于2015年12月11日在哈萨克斯坦拜科努尔航天发射场成功发射入轨。该卫星配备多谱段扫描仪等先进载荷,可提供云图、气象影像与风场数据,主要用于预报天气,监测气候变化、突发性灾害与生态环境,同时也承担空间天气观测任务,为全球气象研究与预警提供支撑。

Basic Information
目录编号:
41105
目录名称:
ELEKTRO-L 2
国际标识:
2015-074A
轨道中心:
EARTH
卫星名称:
ELEKTRO-L 2
卫星全名:
--
卫星状态:
在轨 (已飞行3841 天)
发射日期:
2015-12-11 UTC
国别 :
俄罗斯(独联体) (CIS)
星等 :
--
Orbit Information
数据来源 国际轨道数据 AOE轨道数据
星历时间 2026-06-16T23:18:31+0800
1天前
查看轨道信息
2026-06-17T05:00:00+0800
21小时前
查看轨道信息
半长轴 42165.121km 42165.093km
偏心率 0.0000972 0.0000781
轨道倾角 6.693° 6.693°
近地点辐角 242.263° 242.514°
升交点赤经 70.526° 70.532°
平近点角 167.233° 252.578°
近地点 35782.885km 35783.662km
远地点 35791.083km 35790.25km
周期 1436.117分钟 1436.115分钟
每日圈数 1.002704 1.002705
Detailed Information
使用方式:
暂无
2D Orbit Map
3D Orbit Map
Orbit Altitude Analysis Chart
Orbit Inclination Analysis Chart
Orbit Comprehensive Analysis Chart
View Comprehensive Chart